Location: Ahausen
(50.4985°N, 8.2722°E)
Time: 03:12:48
(UTC+00:00)

Cosmos 372 Rocket - Pass Details

Date: 18 September 2020
Orbit: 739 x 767 km, 74.1° (Epoch: 22 October)

Event Time Altitude Azimuth Distance (km) Brightness Sun altitude
Rises 18:44:04 0° 185° (S) 3,223 7.1 -11.9°
Reaches altitude 10° 18:46:29 10° 180° (S) 2,300 6.3 -12.3°
Maximum altitude 18:51:31 50° 107° (ESE) 973 4.1 -13.0°
Drops below altitude 10° 18:56:33 10° 33° (NNE) 2,306 6.3 -13.8°
Sets 18:58:59 0° 28° (NNE) 3,232 7.2 -14.2°
